Regional Weather Roundup
Issued by NWS

Home | Current Version | Previous Version | Text Only | Print | Product List | Glossary Off
Versions: 1 2 3 4 5 6 7 8 9 10 11 12 13 14 15 16 17 18 19 20 21 22 23 24 25 26 27 28 29 30 31 32 33 34 35 36 37 38 39 40 41 42 43 44 45 46 47 48 49 50

000
ASUS43 KOAX 012102
RWRNE

WEATHER ROUNDUP FOR NEBRASKA
NATIONAL WEATHER SERVICE OMAHA NE
400 PM CDT WED APR 01 2015

NOTES: SATELLITE DATA IS BEING USED TO AUGMENT CLOUD COVER ABOVE
       12000 FEET.
       "FAIR" INDICATES FEW OR NO CLOUDS BELOW 12,000 FEET WITH NO
       SIGNIFICANT WEATHER AND/OR OBSTRUCTIONS TO VISIBILITY.

  * THESE STATIONS DO NOT REPORT WEATHER SUCH AS RAIN...SNOW OR FOG.

NEZ001>004-019>022-054>056-012200-
NEBRASKA PANHANDLE

CITY           SKY/WX    TMP DP  RH WIND       PRES   REMARKS
SCOTTSBLUFF    PTSUNNY   66  18  15 W23G35    29.71R
ALLIANCE       MOSUNNY   69  36  29 N25G32    29.68F
CHADRON        MOSUNNY   62  35  36 NW26G33   29.73R
SIDNEY         PTSUNNY   74  30  19 NW25G32   29.69S
$$

NEZ057>060-069>072-079>082-012200-
SOUTHWEST NEBRASKA

CITY           SKY/WX    TMP DP  RH WIND       PRES   REMARKS
NORTH PLATTE   MOSUNNY   77  30  17 N17G25    29.60R
IMPERIAL       MOSUNNY   80  26  13 N16       29.62F
MCCOOK         PTSUNNY   85  29  13 NW7       29.56F
$$

NEZ005>010-023>029-035>040-094-012200-
NORTH CENTRAL NEBRASKA

CITY           SKY/WX    TMP DP  RH WIND       PRES   REMARKS
VALENTINE      PTSUNNY   67  37  33 N21G28    29.66R
BROKEN BOW     PTSUNNY   82  38  20 NW14      29.57S
ORD            PTSUNNY   83  37  19 W14G23    29.53F
$$

NEZ041-046>049-061>064-073>077-083>087-012200-
SOUTH CENTRAL NEBRASKA

CITY           SKY/WX    TMP DP  RH WIND       PRES   REMARKS
GRAND ISLAND   PTSUNNY   86  42  21 S25G38    29.55F
HASTINGS       MOSUNNY   83  44  25 S24G32    29.55F
KEARNEY *      PTSUNNY   86  43  22 S20G30    29.55F
$$

NEZ011>018-030>034-042>045-012200-
NORTHEAST NEBRASKA

CITY           SKY/WX    TMP DP  RH WIND       PRES   REMARKS
NORFOLK        PTSUNNY   84  45  25 S24G37    29.53S
COLUMBUS *     MOSUNNY   84  45  24 S24G31    29.58S
TEKAMAH        SUNNY     89  44  20 S29G38    29.56F
$$

NEZ050>053-065>068-078-088>093-012200-
SOUTHEAST NEBRASKA

CITY           SKY/WX    TMP DP  RH WIND       PRES   REMARKS
LINCOLN        SUNNY     85  45  24 S25G39    29.58F
OMAHA EPPLEY   MOSUNNY   84  46  26 S26G36    29.58F
FALLS CITY     MOSUNNY   82  48  30 S20G32    29.66F
$$

NEZ044-045-051>053-067-012200-
OMAHA AREA

CITY           SKY/WX    TMP DP  RH WIND       PRES   REMARKS
OMAHA EPPLEY   MOSUNNY   84  46  26 S26G36    29.58F
OFFUTT AFB     SUNNY     85  46  25 S25       29.59F
$$


USA.gov is the U.S. government's official web portal to all federal, state and local government web resources and services.